^^

..:: Storico WU ::..




Lo storico viene creato da WUnderground con i dati che la stazione Meteomincio invia al loro server. L' aggiornamento viene fatto ogni 5 minuti circa, tuttavia possono esserci intervalli pił ampi a causa di errori, interruzioni di servizio o problemi nell' invio tramite FTP.


Storico stazione MeteoMincio
Giorno Sommario per Febbario 06, 2023 Unità:  Inglese    Metrico   Entrambi
Giorno Settimana Mese Anno
  Max: Min: Media:
Temperatura: 44.6 °F 33.8 °F 39 °F
Dew Point: 35.6 °F 30.2 °F 32.9 °F
Umidità: 89% 65% 79%
Velocità vento: 11.2mph 0mph 5.5mph
Raffica: 14.9mph - -
Direzione- - East
Pressione: 30.6 in 30.5 in -
Precipitazioni: 0 in    
 
 
Tabulato Dati per Febbario 06, 2023
Ora Temperatura Dew Point Pressione Direzione Velocità vento Raffica Umidità Intensità pioggia (oraria) Info solare Situazione
00:04 39.2 °F 33.8 °F 30.5 in East 7.5 mph 9.3 mph 81% 0 in 0.00 W/m2 unknown
00:09 39.2 °F 33.8 °F 30.6 in East 6.2 mph 9.3 mph 81% 0 in 0.00 W/m2 unknown
00:14 39.2 °F 33.8 °F 30.6 in East 6.2 mph 8.7 mph 81% 0 in 0.00 W/m2 unknown
00:19 39.2 °F 35.6 °F 30.6 in East 6.2 mph 8.1 mph 82% 0 in 0.00 W/m2 unknown
00:24 39.2 °F 35.6 °F 30.6 in ENE 5 mph 8.1 mph 82% 0 in 0.00 W/m2 unknown
00:29 39.2 °F 35.6 °F 30.6 in ENE 3.7 mph 6.8 mph 82% 0 in 0.00 W/m2 unknown
00:34 39.2 °F 35.6 °F 30.6 in NE 5 mph 6.8 mph 82% 0 in 0.00 W/m2 unknown
00:39 39.2 °F 35.6 °F 30.6 in NE 5 mph 6.8 mph 82% 0 in 0.00 W/m2 unknown
00:44 39.2 °F 35.6 °F 30.6 in ENE 4.3 mph 6.8 mph 82% 0 in 0.00 W/m2 unknown
00:49 39.2 °F 33.8 °F 30.6 in ENE 5.6 mph 6.8 mph 82% 0 in 0.00 W/m2 unknown
00:54 39.2 °F 33.8 °F 30.6 in ENE 5 mph 6.8 mph 82% 0 in 0.00 W/m2 unknown
00:59 39.2 °F 35.6 °F 30.6 in ENE 7.5 mph 10.6 mph 83% 0 in 0.00 W/m2 unknown
01:04 39.2 °F 35.6 °F 30.6 in ENE 6.8 mph 9.9 mph 83% 0 in 0.00 W/m2 unknown
01:09 39.2 °F 33.8 °F 30.6 in ENE 6.2 mph 9.3 mph 82% 0 in 0.00 W/m2 unknown
01:14 39.2 °F 33.8 °F 30.6 in ENE 5 mph 8.7 mph 82% 0 in 0.00 W/m2 unknown
01:19 39.2 °F 33.8 °F 30.6 in NE 4.3 mph 8.1 mph 82% 0 in 0.00 W/m2 unknown
01:24 39.2 °F 33.8 °F 30.6 in NE 5 mph 6.8 mph 82% 0 in 0.00 W/m2 unknown
01:29 39.2 °F 33.8 °F 30.6 in NE 3.7 mph 6.8 mph 82% 0 in 0.00 W/m2 unknown
01:34 39.2 °F 33.8 °F 30.6 in ENE 3.7 mph 6.2 mph 82% 0 in 0.00 W/m2 unknown
01:39 39.2 °F 33.8 °F 30.6 in ENE 2.5 mph 6.2 mph 81% 0 in 0.00 W/m2 unknown
01:44 39.2 °F 33.8 °F 30.6 in ENE 3.7 mph 6.8 mph 82% 0 in 0.00 W/m2 unknown
01:49 39.2 °F 33.8 °F 30.6 in ENE 3.7 mph 6.8 mph 82% 0 in 0.00 W/m2 unknown
01:54 39.2 °F 33.8 °F 30.6 in ENE 3.1 mph 5 mph 82% 0 in 0.00 W/m2 unknown
01:59 39.2 °F 33.8 °F 30.6 in ENE 3.7 mph 5 mph 82% 0 in 0.00 W/m2 unknown
02:04 39.2 °F 33.8 °F 30.6 in ENE 3.1 mph 5 mph 82% 0 in 0.00 W/m2 unknown
02:09 39.2 °F 33.8 °F 30.6 in ENE 3.7 mph 5 mph 82% 0 in 0.00 W/m2 unknown
02:14 39.2 °F 33.8 °F 30.6 in ENE 2.5 mph 5 mph 82% 0 in 0.00 W/m2 unknown
02:19 39.2 °F 33.8 °F 30.6 in ENE 3.1 mph 3.7 mph 83% 0 in 0.00 W/m2 unknown
02:24 39.2 °F 33.8 °F 30.6 in East 2.5 mph 3.7 mph 83% 0 in 0.00 W/m2 unknown
02:29 39.2 °F 33.8 °F 30.6 in East 1.9 mph 3.7 mph 83% 0 in 0.00 W/m2 unknown
02:34 39.2 °F 33.8 °F 30.6 in ENE 1.9 mph 3.7 mph 83% 0 in 0.00 W/m2 unknown
02:39 39.2 °F 33.8 °F 30.6 in ENE 1.9 mph 3.7 mph 83% 0 in 0.00 W/m2 unknown
02:44 39.2 °F 33.8 °F 30.6 in ENE 1.9 mph 3.7 mph 83% 0 in 0.00 W/m2 unknown
02:49 39.2 °F 33.8 °F 30.6 in ENE 1.9 mph 3.7 mph 83% 0 in 0.00 W/m2 unknown
02:54 39.2 °F 33.8 °F 30.6 in ENE 1.9 mph 3.7 mph 83% 0 in 0.00 W/m2 unknown
02:59 39.2 °F 33.8 °F 30.6 in ENE 1.2 mph 3.7 mph 83% 0 in 0.00 W/m2 unknown
03:04 39.2 °F 33.8 °F 30.6 in ENE 1.2 mph 3.1 mph 83% 0 in 0.00 W/m2 unknown
03:09 39.2 °F 33.8 °F 30.6 in ENE 1.2 mph 2.5 mph 83% 0 in 0.00 W/m2 unknown
03:14 39.2 °F 33.8 °F 30.6 in NE 1.9 mph 3.1 mph 83% 0 in 0.00 W/m2 unknown
03:19 39.2 °F 33.8 °F 30.6 in NE 2.5 mph 3.7 mph 83% 0 in 0.00 W/m2 unknown
03:24 39.2 °F 33.8 °F 30.6 in ENE 1.9 mph 3.7 mph 83% 0 in 0.00 W/m2 unknown
03:29 39.2 °F 33.8 °F 30.6 in ENE 1.9 mph 3.7 mph 83% 0 in 0.00 W/m2 unknown
03:34 39.2 °F 33.8 °F 30.6 in ENE 1.9 mph 3.7 mph 82% 0 in 0.00 W/m2 unknown
03:39 39.2 °F 33.8 °F 30.6 in ENE 2.5 mph 3.7 mph 82% 0 in 0.00 W/m2 unknown
03:44 39.2 °F 33.8 °F 30.6 in ENE 1.9 mph 3.7 mph 82% 0 in 0.00 W/m2 unknown
03:49 39.2 °F 33.8 °F 30.6 in ENE 1.9 mph 3.1 mph 83% 0 in 0.00 W/m2 unknown
03:54 39.2 °F 33.8 °F 30.6 in ENE 1.2 mph 2.5 mph 83% 0 in 0.00 W/m2 unknown
03:59 39.2 °F 33.8 °F 30.6 in ENE 2.5 mph 3.7 mph 83% 0 in 0.00 W/m2 unknown
04:04 39.2 °F 33.8 °F 30.6 in NE 3.1 mph 3.7 mph 83% 0 in 0.00 W/m2 unknown
04:09 39.2 °F 33.8 °F 30.6 in ENE 1.9 mph 3.7 mph 83% 0 in 0.00 W/m2 unknown
04:14 39.2 °F 33.8 °F 30.6 in NE 2.5 mph 3.7 mph 83% 0 in 0.00 W/m2 unknown
04:19 39.2 °F 33.8 °F 30.6 in ENE 1.9 mph 3.7 mph 83% 0 in 0.00 W/m2 unknown
04:24 39.2 °F 33.8 °F 30.6 in ENE 1.9 mph 3.7 mph 83% 0 in 0.00 W/m2 unknown
04:29 39.2 °F 33.8 °F 30.6 in ENE 2.5 mph 3.7 mph 83% 0 in 0.00 W/m2 unknown
04:34 39.2 °F 33.8 °F 30.6 in East 1.9 mph 3.7 mph 84% 0 in 0.00 W/m2 unknown
04:39 39.2 °F 33.8 °F 30.6 in ESE 1.9 mph 3.1 mph 84% 0 in 0.00 W/m2 unknown
04:44 37.4 °F 33.8 °F 30.6 in East 3.1 mph 5 mph 84% 0 in 0.00 W/m2 unknown
04:49 37.4 °F 33.8 °F 30.6 in East 3.1 mph 5 mph 84% 0 in 0.00 W/m2 unknown
04:54 37.4 °F 33.8 °F 30.6 in East 3.1 mph 6.2 mph 84% 0 in 0.00 W/m2 unknown
04:59 37.4 °F 33.8 °F 30.6 in East 3.7 mph 6.2 mph 84% 0 in 0.00 W/m2 unknown
05:04 37.4 °F 33.8 °F 30.6 in East 3.7 mph 6.8 mph 85% 0 in 0.00 W/m2 unknown
05:09 37.4 °F 33.8 °F 30.6 in East 3.7 mph 6.8 mph 85% 0 in 0.00 W/m2 unknown
05:14 37.4 °F 33.8 °F 30.6 in East 3.1 mph 5 mph 85% 0 in 0.00 W/m2 unknown
05:19 37.4 °F 33.8 °F 30.6 in East 3.7 mph 6.8 mph 85% 0 in 0.00 W/m2 unknown
05:24 37.4 °F 33.8 °F 30.6 in East 5 mph 6.8 mph 86% 0 in 0.00 W/m2 unknown
05:29 37.4 °F 33.8 °F 30.6 in East 4.3 mph 6.8 mph 86% 0 in 0.00 W/m2 unknown
05:34 37.4 °F 33.8 °F 30.6 in ENE 3.1 mph 5 mph 86% 0 in 0.00 W/m2 unknown
05:39 37.4 °F 33.8 °F 30.6 in ENE 3.1 mph 6.2 mph 86% 0 in 0.00 W/m2 unknown
05:44 37.4 °F 33.8 °F 30.6 in ENE 4.3 mph 6.2 mph 87% 0 in 0.00 W/m2 unknown
05:49 37.4 °F 33.8 °F 30.6 in East 5 mph 8.1 mph 87% 0 in 0.00 W/m2 unknown
05:54 37.4 °F 33.8 °F 30.6 in ENE 3.1 mph 8.1 mph 87% 0 in 0.00 W/m2 unknown
05:59 37.4 °F 33.8 °F 30.6 in East 3.1 mph 6.8 mph 86% 0 in 0.00 W/m2 unknown
06:04 37.4 °F 33.8 °F 30.6 in East 3.1 mph 6.2 mph 86% 0 in 0.00 W/m2 unknown
06:09 37.4 °F 33.8 °F 30.6 in East 1.2 mph 6.2 mph 86% 0 in 0.00 W/m2 unknown
06:14 37.4 °F 33.8 °F 30.6 in East 1.2 mph 2.5 mph 86% 0 in 0.00 W/m2 unknown
06:19 37.4 °F 33.8 °F 30.6 in East 1.2 mph 2.5 mph 86% 0 in 0.00 W/m2 unknown
06:24 37.4 °F 33.8 °F 30.6 in East 1.9 mph 3.7 mph 86% 0 in 0.00 W/m2 unknown
06:29 37.4 °F 33.8 °F 30.6 in East 1.9 mph 3.7 mph 86% 0 in 0.00 W/m2 unknown
06:34 37.4 °F 33.8 °F 30.6 in East 2.5 mph 5 mph 86% 0 in 0.00 W/m2 unknown
06:39 37.4 °F 33.8 °F 30.6 in East 2.5 mph 5 mph 86% 0 in 0.00 W/m2 unknown
06:44 37.4 °F 33.8 °F 30.6 in East 2.5 mph 5 mph 86% 0 in 0.00 W/m2 unknown
06:49 37.4 °F 33.8 °F 30.6 in East 2.5 mph 5 mph 86% 0 in 0.00 W/m2 unknown
06:54 37.4 °F 33.8 °F 30.6 in East 1.9 mph 5 mph 86% 0 in 0.00 W/m2 unknown
06:59 37.4 °F 33.8 °F 30.6 in East 2.5 mph 3.1 mph 86% 0 in 0.00 W/m2 unknown
07:04 37.4 °F 33.8 °F 30.6 in ENE 2.5 mph 3.7 mph 86% 0 in 0.00 W/m2 unknown
07:09 37.4 °F 33.8 °F 30.6 in ENE 1.9 mph 3.7 mph 86% 0 in 0.00 W/m2 unknown
07:14 37.4 °F 33.8 °F 30.6 in ENE 2.5 mph 3.7 mph 86% 0 in 0.00 W/m2 unknown
07:19 37.4 °F 33.8 °F 30.6 in ENE 2.5 mph 3.7 mph 86% 0 in 0.00 W/m2 unknown
07:24 37.4 °F 33.8 °F 30.6 in ENE 3.1 mph 3.7 mph 86% 0 in 0.00 W/m2 unknown
07:29 37.4 °F 33.8 °F 30.6 in ENE 3.1 mph 3.7 mph 86% 0 in 0.00 W/m2 unknown
07:34 37.4 °F 33.8 °F 30.6 in ENE 2.5 mph 3.7 mph 86% 0 in 0.00 W/m2 unknown
07:39 37.4 °F 33.8 °F 30.6 in East 1.2 mph 3.1 mph 86% 0 in 5.00 W/m2 unknown
07:44 37.4 °F 33.8 °F 30.6 in Calm   1.9 mph 86% 0 in 5.00 W/m2 unknown
07:49 37.4 °F 33.8 °F 30.6 in Calm   1.2 mph 86% 0 in 9.00 W/m2 unknown
07:54 37.4 °F 33.8 °F 30.6 in ENE 1.9 mph 3.7 mph 86% 0 in 12.00 W/m2 unknown
07:59 37.4 °F 33.8 °F 30.6 in ENE 1.9 mph 3.7 mph 86% 0 in 14.00 W/m2 unknown
08:04 37.4 °F 33.8 °F 30.6 in ENE 1.9 mph 3.7 mph 86% 0 in 19.00 W/m2 unknown
08:09 37.4 °F 33.8 °F 30.6 in NE 3.1 mph 3.7 mph 86% 0 in 23.00 W/m2 unknown
08:14 37.4 °F 33.8 °F 30.6 in NE 3.1 mph 3.7 mph 86% 0 in 26.00 W/m2 unknown
08:19 37.4 °F 33.8 °F 30.6 in NE 3.1 mph 5 mph 86% 0 in 32.00 W/m2 unknown
08:24 37.4 °F 33.8 °F 30.6 in ENE 3.1 mph 5 mph 87% 0 in 37.00 W/m2 unknown
08:29 37.4 °F 33.8 °F 30.6 in ENE 3.1 mph 4.3 mph 87% 0 in 40.00 W/m2 unknown
08:34 37.4 °F 33.8 °F 30.6 in ENE 3.7 mph 6.2 mph 87% 0 in 46.00 W/m2 unknown
08:39 37.4 °F 33.8 °F 30.6 in East 7.5 mph 9.3 mph 87% 0 in 46.00 W/m2 unknown
08:44 37.4 °F 33.8 °F 30.6 in East 7.5 mph 9.3 mph 87% 0 in 44.00 W/m2 unknown
08:49 37.4 °F 33.8 °F 30.6 in East 5 mph 8.7 mph 86% 0 in 51.00 W/m2 unknown
08:54 37.4 °F 33.8 °F 30.6 in East 6.2 mph 8.7 mph 86% 0 in 60.00 W/m2 unknown
08:59 37.4 °F 33.8 °F 30.6 in East 5.6 mph 8.1 mph 85% 0 in 69.00 W/m2 unknown
09:04 37.4 °F 33.8 °F 30.6 in East 5.6 mph 8.1 mph 85% 0 in 67.00 W/m2 unknown
09:09 37.4 °F 33.8 °F 30.6 in East 5.6 mph 8.1 mph 85% 0 in 74.00 W/m2 unknown
09:14 37.4 °F 33.8 °F 30.6 in East 8.1 mph 10.6 mph 84% 0 in 76.00 W/m2 unknown
09:19 37.4 °F 33.8 °F 30.6 in East 5 mph 9.9 mph 84% 0 in 81.00 W/m2 unknown
09:24 37.4 °F 33.8 °F 30.6 in East 6.8 mph 9.3 mph 83% 0 in 86.00 W/m2 unknown
09:29 39.2 °F 33.8 °F 30.6 in East 3.1 mph 8.7 mph 83% 0 in 84.00 W/m2 unknown
09:34 39.2 °F 33.8 °F 30.6 in East 3.1 mph 5 mph 83% 0 in 86.00 W/m2 unknown
09:39 39.2 °F 33.8 °F 30.6 in ENE 3.1 mph 5 mph 83% 0 in 100.00 W/m2 unknown
09:44 39.2 °F 33.8 °F 30.6 in East 4.3 mph 6.2 mph 83% 0 in 113.00 W/m2 unknown
09:49 39.2 °F 33.8 °F 30.6 in East 3.1 mph 6.2 mph 82% 0 in 128.00 W/m2 unknown
09:54 39.2 °F 33.8 °F 30.6 in East 3.7 mph 6.8 mph 81% 0 in 128.00 W/m2 unknown
09:59 39.2 °F 33.8 °F 30.6 in ESE 2.5 mph 6.8 mph 80% 0 in 127.00 W/m2 unknown
10:04 39.2 °F 33.8 °F 30.6 in ESE 3.1 mph 5 mph 78% 0 in 113.00 W/m2 unknown
10:09 39.2 °F 33.8 °F 30.6 in SE 1.9 mph 5 mph 78% 0 in 102.00 W/m2 unknown
10:14 39.2 °F 33.8 °F 30.6 in ESE 3.7 mph 5 mph 77% 0 in 109.00 W/m2 unknown
10:19 39.2 °F 33.8 °F 30.6 in SE 4.3 mph 6.2 mph 76% 0 in 111.00 W/m2 unknown
10:24 39.2 °F 32 °F 30.6 in SE 3.7 mph 6.8 mph 75% 0 in 121.00 W/m2 unknown
10:29 39.2 °F 32 °F 30.6 in ESE 4.3 mph 6.8 mph 75% 0 in 130.00 W/m2 unknown
10:34 39.2 °F 32 °F 30.6 in ESE 4.3 mph 6.8 mph 75% 0 in 141.00 W/m2 unknown
10:39 41 °F 33.8 °F 30.6 in SE 2.5 mph 6.8 mph 76% 0 in 149.00 W/m2 unknown
10:44 41 °F 33.8 °F 30.6 in SE 5 mph 6.8 mph 75% 0 in 155.00 W/m2 unknown
10:49 41 °F 33.8 °F 30.6 in SSE 1.9 mph 6.2 mph 75% 0 in 148.00 W/m2 unknown
10:54 41 °F 33.8 °F 30.6 in SE 1.9 mph 3.7 mph 75% 0 in 146.00 W/m2 unknown
10:59 41 °F 33.8 °F 30.6 in SSE 3.7 mph 5 mph 74% 0 in 169.00 W/m2 unknown
11:04 41 °F 33.8 °F 30.6 in SE 4.3 mph 6.8 mph 75% 0 in 176.00 W/m2 unknown
11:09 41 °F 33.8 °F 30.6 in ESE 5 mph 6.8 mph 75% 0 in 183.00 W/m2 unknown
11:14 41 °F 33.8 °F 30.6 in SSE 1.9 mph 6.8 mph 75% 0 in 190.00 W/m2 unknown
11:19 41 °F 33.8 °F 30.6 in SSE 4.3 mph 6.2 mph 74% 0 in 165.00 W/m2 unknown
11:24 41 °F 32 °F 30.6 in SSE 5.6 mph 9.3 mph 71% 0 in 160.00 W/m2 unknown
11:29 41 °F 32 °F 30.6 in SSE 5 mph 8.7 mph 70% 0 in 179.00 W/m2 unknown
11:34 41 °F 32 °F 30.6 in SSE 6.2 mph 9.3 mph 71% 0 in 192.00 W/m2 unknown
11:39 41 °F 32 °F 30.6 in South 6.8 mph 9.3 mph 70% 0 in 211.00 W/m2 unknown
11:44 41 °F 32 °F 30.6 in SSE 6.8 mph 9.3 mph 70% 0 in 216.00 W/m2 unknown
11:49 41 °F 32 °F 30.6 in SE 6.2 mph 8.7 mph 70% 0 in 207.00 W/m2 unknown
11:54 41 °F 32 °F 30.6 in SE 5.6 mph 8.1 mph 69% 0 in 172.00 W/m2 unknown
11:59 41 °F 32 °F 30.6 in SE 5.6 mph 8.1 mph 68% 0 in 174.00 W/m2 unknown
12:04 41 °F 32 °F 30.6 in SSE 5 mph 8.1 mph 69% 0 in 179.00 W/m2 unknown
12:09 42.8 °F 32 °F 30.6 in SSE 3.1 mph 8.1 mph 69% 0 in 193.00 W/m2 unknown
12:14 42.8 °F 32 °F 30.6 in ESE 3.1 mph 6.8 mph 69% 0 in 216.00 W/m2 unknown
12:19 42.8 °F 32 °F 30.6 in SE 5 mph 9.3 mph 67% 0 in 216.00 W/m2 unknown
12:24 42.8 °F 32 °F 30.6 in SE 8.1 mph 11.8 mph 66% 0 in 218.00 W/m2 unknown
12:29 42.8 °F 32 °F 30.6 in SE 6.8 mph 11.8 mph 66% 0 in 218.00 W/m2 unknown
12:34 42.8 °F 32 °F 30.6 in SE 8.7 mph 11.8 mph 66% 0 in 223.00 W/m2 unknown
12:39 42.8 °F 32 °F 30.6 in SE 5.6 mph 9.3 mph 65% 0 in 227.00 W/m2 unknown
12:44 42.8 °F 32 °F 30.6 in SSE 5 mph 8.7 mph 65% 0 in 241.00 W/m2 unknown
12:49 42.8 °F 32 °F 30.6 in South 5 mph 8.1 mph 65% 0 in 241.00 W/m2 unknown
12:54 42.8 °F 32 °F 30.6 in SE 4.3 mph 8.1 mph 65% 0 in 244.00 W/m2 unknown
12:59 42.8 °F 32 °F 30.6 in ESE 5.6 mph 6.8 mph 65% 0 in 257.00 W/m2 unknown
13:04 42.8 °F 32 °F 30.6 in SE 8.1 mph 10.6 mph 66% 0 in 253.00 W/m2 unknown
13:09 42.8 °F 32 °F 30.6 in South 3.1 mph 9.9 mph 65% 0 in 248.00 W/m2 unknown
13:14 42.8 °F 32 °F 30.6 in East 6.2 mph 8.1 mph 65% 0 in 207.00 W/m2 unknown
13:19 42.8 °F 32 °F 30.5 in East 6.8 mph 8.1 mph 65% 0 in 229.00 W/m2 unknown
13:24 42.8 °F 32 °F 30.5 in ESE 5.6 mph 8.1 mph 66% 0 in 229.00 W/m2 unknown
13:29 42.8 °F 32 °F 30.5 in ESE 6.8 mph 8.7 mph 65% 0 in 234.00 W/m2 unknown
13:34 42.8 °F 32 °F 30.5 in SE 4.3 mph 8.7 mph 65% 0 in 251.00 W/m2 unknown
13:39 44.6 °F 32 °F 30.5 in East 6.8 mph 9.3 mph 65% 0 in 253.00 W/m2 unknown
13:44 42.8 °F 33.8 °F 30.5 in ENE 6.8 mph 9.3 mph 66% 0 in 232.00 W/m2 unknown
13:49 42.8 °F 33.8 °F 30.5 in NE 6.2 mph 9.3 mph 66% 0 in 223.00 W/m2 unknown
13:54 44.6 °F 33.8 °F 30.5 in ENE 6.2 mph 9.3 mph 66% 0 in 272.00 W/m2 unknown
13:59 44.6 °F 33.8 °F 30.5 in East 9.3 mph 11.8 mph 66% 0 in 318.00 W/m2 unknown
14:04 44.6 °F 33.8 °F 30.5 in ESE 8.7 mph 13 mph 66% 0 in 311.00 W/m2 unknown
14:09 44.6 °F 33.8 °F 30.5 in East 6.8 mph 13 mph 66% 0 in 306.00 W/m2 unknown
14:14 44.6 °F 33.8 °F 30.5 in ENE 7.5 mph 9.9 mph 66% 0 in 269.00 W/m2 unknown
14:19 44.6 °F 33.8 °F 30.5 in East 7.5 mph 10.6 mph 67% 0 in 271.00 W/m2 unknown
14:24 44.6 °F 33.8 °F 30.5 in East 8.1 mph 11.8 mph 66% 0 in 241.00 W/m2 unknown
14:29 44.6 °F 33.8 °F 30.5 in ENE 8.1 mph 11.8 mph 67% 0 in 241.00 W/m2 unknown
14:34 44.6 °F 33.8 °F 30.5 in East 8.7 mph 11.8 mph 67% 0 in 257.00 W/m2 unknown
14:39 44.6 °F 33.8 °F 30.5 in ENE 8.7 mph 11.8 mph 67% 0 in 445.00 W/m2 unknown
14:44 44.6 °F 33.8 °F 30.5 in East 8.1 mph 11.8 mph 67% 0 in 445.00 W/m2 unknown
14:49 44.6 °F 33.8 °F 30.5 in East 7.5 mph 11.8 mph 67% 0 in 432.00 W/m2 unknown
14:54 44.6 °F 33.8 °F 30.5 in East 8.1 mph 9.9 mph 67% 0 in 418.00 W/m2 unknown
14:59 44.6 °F 33.8 °F 30.5 in East 9.3 mph 13 mph 67% 0 in 323.00 W/m2 unknown
15:04 44.6 °F 33.8 °F 30.5 in East 9.9 mph 13 mph 67% 0 in 316.00 W/m2 unknown
15:09 44.6 °F 33.8 °F 30.5 in East 8.7 mph 13 mph 67% 0 in 251.00 W/m2 unknown
15:14 44.6 °F 33.8 °F 30.5 in ENE 9.9 mph 13 mph 68% 0 in 151.00 W/m2 unknown
15:19 42.8 °F 33.8 °F 30.5 in ENE 9.9 mph 13 mph 68% 0 in 297.00 W/m2 unknown
15:24 42.8 °F 33.8 °F 30.5 in ENE 8.7 mph 13 mph 69% 0 in 102.00 W/m2 unknown
15:29 42.8 °F 33.8 °F 30.5 in ENE 9.3 mph 13 mph 70% 0 in 113.00 W/m2 unknown
15:34 42.8 °F 33.8 °F 30.5 in ENE 7.5 mph 13 mph 70% 0 in 142.00 W/m2 unknown
15:39 42.8 °F 33.8 °F 30.5 in ENE 7.5 mph 11.8 mph 71% 0 in 102.00 W/m2 unknown
15:44 42.8 °F 33.8 °F 30.5 in ENE 7.5 mph 10.6 mph 71% 0 in 91.00 W/m2 unknown
15:49 42.8 °F 33.8 °F 30.5 in ENE 10.6 mph 13 mph 71% 0 in 95.00 W/m2 unknown
15:54 42.8 °F 33.8 °F 30.5 in ENE 10.6 mph 13 mph 72% 0 in 95.00 W/m2 unknown
15:59 42.8 °F 33.8 °F 30.5 in ENE 8.1 mph 13 mph 72% 0 in 93.00 W/m2 unknown
16:04 42.8 °F 33.8 °F 30.5 in ENE 8.1 mph 14.9 mph 72% 0 in 95.00 W/m2 unknown
16:09 42.8 °F 33.8 °F 30.5 in ENE 11.2 mph 14.9 mph 72% 0 in 91.00 W/m2 unknown
16:14 42.8 °F 33.8 °F 30.5 in ENE 8.7 mph 14.9 mph 72% 0 in 72.00 W/m2 unknown
16:19 42.8 °F 33.8 °F 30.5 in ENE 8.1 mph 13 mph 72% 0 in 72.00 W/m2 unknown
16:24 42.8 °F 35.6 °F 30.5 in ENE 9.9 mph 13 mph 76% 0 in 70.00 W/m2 unknown
16:29 42.8 °F 33.8 °F 30.5 in ENE 11.2 mph 14.3 mph 72% 0 in 69.00 W/m2 unknown
16:34 42.8 °F 33.8 °F 30.5 in ENE 10.6 mph 14.3 mph 72% 0 in 65.00 W/m2 unknown
16:39 41 °F 33.8 °F 30.5 in ENE 8.1 mph 14.3 mph 73% 0 in 42.00 W/m2 unknown
16:43 41 °F 33.8 °F 30.5 in ENE 6.8 mph 11.8 mph 73% 0 in 42.00 W/m2 unknown
16:50 41 °F 33.8 °F 30.5 in ENE 6.2 mph 11.2 mph 73% 0 in 30.00 W/m2 unknown
16:55 41 °F 33.8 °F 30.5 in ENE 8.1 mph 9.9 mph 74% 0 in 25.00 W/m2 unknown
17:10 41 °F 33.8 °F 30.5 in ENE 6.2 mph 11.2 mph 74% 0 in 5.00 W/m2 unknown
17:15 41 °F 33.8 °F 30.5 in ENE 8.1 mph 11.2 mph 75% 0 in 5.00 W/m2 unknown
17:20 41 °F 33.8 °F 30.5 in ENE 5 mph 9.9 mph 75% 0 in 0.00 W/m2 unknown
17:40 41 °F 33.8 °F 30.5 in ENE 8.1 mph 14.3 mph 76% 0 in 0.00 W/m2 unknown
17:50 41 °F 33.8 °F 30.5 in East 8.7 mph 14.3 mph 76% 0 in 0.00 W/m2 unknown
17:55 39.2 °F 33.8 °F 30.5 in East 9.9 mph 13 mph 76% 0 in 0.00 W/m2 unknown
18:05 39.2 °F 33.8 °F 30.5 in East 6.8 mph 14.9 mph 76% 0 in 0.00 W/m2 unknown
18:10 39.2 °F 32 °F 30.5 in East 6.2 mph 11.2 mph 76% 0 in 0.00 W/m2 unknown
18:50 37.4 °F 32 °F 30.5 in ENE 5 mph 8.1 mph 79% 0 in 0.00 W/m2 unknown
18:59 37.4 °F 32 °F 30.5 in ENE 6.8 mph 14.9 mph 80% 0 in 0.00 W/m2 unknown
19:04 37.4 °F 32 °F 30.5 in ENE 6.2 mph 8.1 mph 81% 0 in 0.00 W/m2 unknown
19:09 37.4 °F 32 °F 30.5 in ENE 5.6 mph 8.1 mph 81% 0 in 0.00 W/m2 unknown
19:14 37.4 °F 32 °F 30.5 in East 6.2 mph 8.7 mph 81% 0 in 0.00 W/m2 unknown
19:19 35.6 °F 30.2 °F 30.5 in ENE 6.2 mph 10.6 mph 81% 0 in 0.00 W/m2 unknown
19:24 35.6 °F 30.2 °F 30.5 in East 6.8 mph 10.6 mph 81% 0 in 0.00 W/m2 unknown
19:29 35.6 °F 30.2 °F 30.5 in ENE 6.8 mph 9.9 mph 81% 0 in 0.00 W/m2 unknown
19:34 35.6 °F 30.2 °F 30.5 in East 6.2 mph 8.7 mph 81% 0 in 0.00 W/m2 unknown
19:39 35.6 °F 30.2 °F 30.5 in East 6.2 mph 8.1 mph 81% 0 in 0.00 W/m2 unknown
19:44 35.6 °F 30.2 °F 30.5 in East 6.2 mph 8.1 mph 82% 0 in 0.00 W/m2 unknown
19:49 35.6 °F 30.2 °F 30.5 in East 6.2 mph 8.1 mph 82% 0 in 0.00 W/m2 unknown
19:54 35.6 °F 30.2 °F 30.5 in East 5 mph 9.3 mph 83% 0 in 0.00 W/m2 unknown
19:59 35.6 °F 30.2 °F 30.5 in East 7.5 mph 9.3 mph 83% 0 in 0.00 W/m2 unknown
20:04 35.6 °F 30.2 °F 30.5 in East 7.5 mph 10.6 mph 83% 0 in 0.00 W/m2 unknown
20:09 35.6 °F 30.2 °F 30.5 in East 8.1 mph 10.6 mph 83% 0 in 0.00 W/m2 unknown
20:14 35.6 °F 30.2 °F 30.5 in East 8.1 mph 13 mph 83% 0 in 0.00 W/m2 unknown
20:19 35.6 °F 30.2 °F 30.5 in East 8.1 mph 13 mph 82% 0 in 0.00 W/m2 unknown
20:24 35.6 °F 30.2 °F 30.5 in East 9.9 mph 13 mph 82% 0 in 0.00 W/m2 unknown
20:29 35.6 °F 30.2 °F 30.5 in East 11.2 mph 14.3 mph 82% 0 in 0.00 W/m2 unknown
20:34 35.6 °F 30.2 °F 30.5 in East 7.5 mph 14.3 mph 82% 0 in 0.00 W/m2 unknown
20:39 35.6 °F 30.2 °F 30.5 in East 8.1 mph 11.8 mph 82% 0 in 0.00 W/m2 unknown
20:44 35.6 °F 30.2 °F 30.5 in East 8.7 mph 11.8 mph 83% 0 in 0.00 W/m2 unknown
20:49 35.6 °F 30.2 °F 30.5 in East 9.3 mph 13 mph 83% 0 in 0.00 W/m2 unknown
20:54 35.6 °F 30.2 °F 30.5 in East 9.9 mph 14.9 mph 83% 0 in 0.00 W/m2 unknown
20:59 35.6 °F 30.2 °F 30.5 in East 9.9 mph 14.9 mph 83% 0 in 0.00 W/m2 unknown
21:04 35.6 °F 30.2 °F 30.5 in ENE 8.7 mph 14.3 mph 83% 0 in 0.00 W/m2 unknown
21:09 35.6 °F 30.2 °F 30.5 in East 9.3 mph 14.3 mph 83% 0 in 0.00 W/m2 unknown
21:14 35.6 °F 32 °F 30.5 in East 9.3 mph 13 mph 84% 0 in 0.00 W/m2 unknown
21:19 35.6 °F 32 °F 30.5 in East 9.3 mph 13 mph 84% 0 in 0.00 W/m2 unknown
21:24 35.6 °F 32 °F 30.5 in East 10.6 mph 14.3 mph 84% 0 in 0.00 W/m2 unknown
21:29 35.6 °F 32 °F 30.5 in East 9.9 mph 14.3 mph 84% 0 in 0.00 W/m2 unknown
21:34 35.6 °F 32 °F 30.6 in East 8.7 mph 14.3 mph 84% 0 in 0.00 W/m2 unknown
21:39 35.6 °F 32 °F 30.6 in East 8.7 mph 11.8 mph 84% 0 in 0.00 W/m2 unknown
21:44 35.6 °F 32 °F 30.6 in East 6.8 mph 9.9 mph 89% 0 in 0.00 W/m2 unknown
21:49 35.6 °F 32 °F 30.6 in East 6.2 mph 8.1 mph 89% 0 in 0.00 W/m2 unknown
21:54 35.6 °F 32 °F 30.6 in East 8.1 mph 11.2 mph 84% 0 in 0.00 W/m2 unknown
21:59 35.6 °F 32 °F 30.6 in East 8.7 mph 11.8 mph 84% 0 in 0.00 W/m2 unknown
22:04 35.6 °F 32 °F 30.6 in East 6.8 mph 11.8 mph 84% 0 in 0.00 W/m2 unknown
22:09 35.6 °F 32 °F 30.6 in East 8.7 mph 14.3 mph 84% 0 in 0.00 W/m2 unknown
22:14 35.6 °F 32 °F 30.6 in East 9.9 mph 14.3 mph 84% 0 in 0.00 W/m2 unknown
22:19 35.6 °F 32 °F 30.6 in East 9.9 mph 14.3 mph 84% 0 in 0.00 W/m2 unknown
22:24 35.6 °F 32 °F 30.6 in East 8.1 mph 13 mph 83% 0 in 0.00 W/m2 unknown
22:29 35.6 °F 32 °F 30.6 in East 9.3 mph 13 mph 83% 0 in 0.00 W/m2 unknown
22:34 35.6 °F 30.2 °F 30.6 in East 8.7 mph 13 mph 83% 0 in 0.00 W/m2 unknown
22:39 35.6 °F 30.2 °F 30.6 in ENE 8.1 mph 13 mph 83% 0 in 0.00 W/m2 unknown
22:44 35.6 °F 30.2 °F 30.6 in East 6.8 mph 9.3 mph 83% 0 in 0.00 W/m2 unknown
22:49 35.6 °F 30.2 °F 30.6 in East 7.5 mph 9.3 mph 83% 0 in 0.00 W/m2 unknown
22:54 35.6 °F 30.2 °F 30.6 in ENE 7.5 mph 11.8 mph 83% 0 in 0.00 W/m2 unknown
22:59 35.6 °F 30.2 °F 30.6 in ENE 6.2 mph 11.8 mph 83% 0 in 0.00 W/m2 unknown
23:04 35.6 °F 30.2 °F 30.6 in ENE 6.2 mph 8.7 mph 83% 0 in 0.00 W/m2 unknown
23:09 35.6 °F 30.2 °F 30.6 in ENE 7.5 mph 11.8 mph 84% 0 in 0.00 W/m2 unknown
23:14 35.6 °F 30.2 °F 30.6 in ENE 8.1 mph 11.8 mph 84% 0 in 0.00 W/m2 unknown
23:19 35.6 °F 30.2 °F 30.6 in ENE 7.5 mph 11.8 mph 84% 0 in 0.00 W/m2 unknown
23:24 35.6 °F 30.2 °F 30.6 in East 8.1 mph 10.6 mph 84% 0 in 0.00 W/m2 unknown
23:29 35.6 °F 30.2 °F 30.6 in ENE 8.7 mph 10.6 mph 84% 0 in 0.00 W/m2 unknown
23:34 35.6 °F 30.2 °F 30.6 in ENE 7.5 mph 10.6 mph 83% 0 in 0.00 W/m2 unknown
23:39 33.8 °F 30.2 °F 30.6 in ENE 7.5 mph 11.2 mph 83% 0 in 0.00 W/m2 unknown
23:44 33.8 °F 30.2 °F 30.6 in ENE 6.8 mph 11.8 mph 83% 0 in 0.00 W/m2 unknown
23:49 33.8 °F 30.2 °F 30.6 in ENE 6.2 mph 11.8 mph 83% 0 in 0.00 W/m2 unknown
23:54 33.8 °F 30.2 °F 30.6 in ENE 5.6 mph 9.9 mph 83% 0 in 0.00 W/m2 unknown
23:59 33.8 °F 30.2 °F 30.6 in East 6.2 mph 9.3 mph 83% 0 in 0.00 W/m2 unknown
Stazione Meteorologica MeteoMincio Rivalta s/M (MN)
Con i complimenti di Weather Underground - 4 mb



METEO PILLOLE
La più disastrosa inondazione causata da cicloni
Bangladesh
Nel novembre 1970 un ciclone nel Golfo del Bangladesh uccise circa 300.000 persone.
Share

Non seguire questo link o sarai bannato dal sito!